This is the latest recevied weather packets stored in our database for station/object KE4ODN. If no packets are shown the sender has not sent any weather packets the latest 10 day(s).
| Time | Temp. | Humidity | Pressure | Rain* | Wind** | Luminosity | Snow |
|---|---|---|---|---|---|---|---|
| 1778091124 | 24.44° C | 80% | 1013.1 hPa | 0 mm | - | 320 W/m² | - |
| 1778090884 | 24.44° C | 81% | 1013 hPa | 0 mm | - | 160 W/m² | - |
| 1778090185 | 24.44° C | 81% | 1013.1 hPa | 0 mm | - | 274 W/m² | - |
| 1778089705 | 24.44° C | 81% | 1013.1 hPa | 0 mm | - | 227 W/m² | - |
| 1778088724 | 24.44° C | 80% | 1013.2 hPa | 0 mm | - | 127 W/m² | - |
| 1778086564 | 24.44° C | 80% | 1013.5 hPa | 0 mm | - | 223 W/m² | - |
| 1778083444 | 24.44° C | 79% | 1013.3 hPa | 0 mm | - | 336 W/m² | - |
| 1778082025 | 23.33° C | 82% | 1013.2 hPa | 0 mm | - | 225 W/m² | - |
| 1778081765 | 23.33° C | 83% | 1013.3 hPa | 0 mm | - | 316 W/m² | - |
| 1778081524 | 22.78° C | 83% | 1013.3 hPa | 0 mm | - | 297 W/m² | - |
| 1778078884 | 22.78° C | 82% | 1013.6 hPa | 0 mm | - | 220 W/m² | - |
| 1778078644 | 22.78° C | 82% | 1013.6 hPa | 0 mm | - | 236 W/m² | - |
| 1778078185 | 22.78° C | 83% | 1013.7 hPa | 0 mm | - | 160 W/m² | - |
| 1778075305 | 21.11° C | 86% | 1013.7 hPa | 0 mm | - | 239 W/m² | - |
| 1778072644 | 20.56° C | 88% | 1014.2 hPa | 0 mm | - | 88 W/m² | - |
| 1778071225 | 20° C | 87% | 1014 hPa | 0 mm | - | 35 W/m² | - |
| 1778069524 | 20° C | 87% | 1013.6 hPa | 0 mm | - | 25 W/m² | - |
| 1778069284 | 20° C | 87% | 1013.5 hPa | 0 mm | - | 19 W/m² | - |
| 1778068324 | 20° C | 87% | 1012.9 hPa | 0 mm | - | 19 W/m² | - |
| 1778067844 | 20° C | 87% | 1013.1 hPa | 0 mm | - | 16 W/m² | - |
| 1778067124 | 20° C | 87% | 1012.8 hPa | 0 mm | - | 11 W/m² | - |
| 1778062324 | 19.44° C | 86% | 1011.9 hPa | 0 mm | - | 0 W/m² | - |
| 1778060644 | 19.44° C | 85% | 1011.4 hPa | 0 mm | - | 0 W/m² | - |
| 1778060404 | 20° C | 85% | 1011.5 hPa | 0 mm | - | 0 W/m² | - |
| 1778058265 | 20° C | 84% | 1011.1 hPa | 0 mm | - | 0 W/m² | - |
* Rain latest hour (hover to see other rain measurements)
** Current wind speed in m/s (hover to see current wind gust speed)